Terug naar catalogus

STARLINK-37463

ActiefCommunicatieSSO
NORAD 68854·PAYLOAD·🇺🇸 United States

Gelanceerd Apr 26, 2026 vanaf Vandenberg Space Force Base

Loading…

Volgende Passages (komende 24 uur)

TLE

VersSource: CelesTrak SupGP

Epoch: Sep 15, 2026, 03:20 UTC

1 68854C 26094R   26258.13937500 -.00068098  00000+0 -21143-2 0  2586
2 68854  97.2837 271.3613 0001431  90.2102  50.3627 15.33467341    16

Volg STARLINK-37463 in realtime met AllMySat

Download on the App Store